Regional Weather Roundup
Issued by NWS

Home | Current Version | Previous Version | Text Only | Print | Product List | Glossary On
Versions: 1 2 3 4 5 6 7 8 9 10 11 12 13 14 15 16 17 18 19 20 21 22 23 24 25 26 27 28 29 30 31 32 33 34 35 36 37 38 39 40 41 42 43 44 45 46 47 48 49 50
000
ASUS43 KDTX 070510
RWRMI
MICHIGAN HOURLY REGIONAL WEATHER ROUNDUP
NATIONAL WEATHER SERVICE DETROIT/PONTIAC MI
ISSUED BY NATIONAL WEATHER SERVICE GRAND RAPIDS MI
1200 AM EST WED DEC 07 2016

NOTE: "FAIR" INDICATES FEW OR NO CLOUDS BELOW 12,000 FEET WITH NO
SIGNIFICANT WEATHER AND/OR OBSTRUCTION TO VISIBILITY.

MIZ047>049-052>055-059>063-066>070-074>076-081>083-070600-
SOUTHEAST LOWER MICHIGAN

CITY           SKY/WX    TMP DP  RH WIND       PRES   REMARKS
ADRIAN         PTCLDY    34  29  82 W13       29.87R WCI  25
ALMA           MOCLDY    34  27  73 SW13      29.81R WCI  25
ANN ARBOR      PTCLDY    35  29  78 SW14G23   29.84R WCI  26
BAD AXE        MOCLDY    35  32  90 W13G20    29.75R WCI  26
DETROIT CITY   PTCLDY    38  33  82 W13G21    29.83R WCI  30
DETROIT        MOCLDY    37  32  82 W12       29.85R WCI  29
FLINT          CLOUDY    35  28  75 W12G22    29.81R WCI  27
GROSSE ILE     MOCLDY    37  32  84 W10G16    29.84R WCI  29
HILLSDALE      MOCLDY    32  27  80 W17       29.86R WCI  21
HOWELL         CLOUDY    35  28  77 W10G22    29.82R WCI  27

CITY           SKY/WX    TMP DP  RH WIND       PRES   REMARKS
JACKSON        CLOUDY    34  27  75 W14G20    29.85R WCI  25
LANSING        MOCLDY    34  24  67 W20       29.84R WCI  23
MASON          MOCLDY    34  28  79 W17       29.84R WCI  23
MONROE         CLOUDY    36  32  86 W13G23    29.85R WCI  27
MT. CLEMENS    CLOUDY    38  34  84 W15       29.79R WCI  30
PONTIAC        PTCLDY    35  29  78 W16       29.79S WCI  25
PORT HOPE        N/A     37  34  89 SW8       29.71R WCI  31
PORT HURON     CLOUDY    36  34  93 W5        29.79R WCI  32
TRI CITIES     CLEAR     34  31  88 SW13      29.78R WCI  25
YPSILANTI      CLOUDY    37  31  78 W16       29.84R WCI  28
$$
MIZ043>046-050>051-056>058-064>065-071>073-077>080-070600-
SOUTHWEST LOWER MICHIGAN

CITY           SKY/WX    TMP DP  RH WIND       PRES   REMARKS
BATTLE CREEK   MOCLDY    33  24  69 W23G32    29.87R WCI  21
BENTON HARBOR  MOCLDY    32  23  69 W22G31    29.93R WCI  19
BIG RAPIDS     CLOUDY    32  22  65 W18G26    29.78R WCI  21
COLDWATER      CLOUDY    32  26  76 W21G30    29.89R WCI  20
HOLLAND        CLOUDY    33  25  72 W16G29    29.88R WCI  23
GRAND RAPIDS   CLOUDY    32  24  72 W18G26    29.86R WCI  20
KALAMAZOO      CLOUDY    34  23  64 W20G25    29.88R WCI  23
MARSHALL       MOCLDY    32  25  74 W10       29.86R WCI  24
MOUNT PLEASANT CLOUDY    34  25  70 W10G17    29.77R WCI  26
MUSKEGON       CLOUDY    32  23  69 W20G33    29.87R WCI  20
STURGIS        CLOUDY    32  26  78 W13       29.89S WCI  22
$$
MIZ016>042-070600-
NORTHERN LOWER MICHIGAN

CITY           SKY/WX    TMP DP  RH WIND       PRES   REMARKS
ALPENA         CLEAR     36  29  75 SW12G18   29.68R WCI  28
BEAVER ISLAND  CLOUDY    32  25  74 W22G35    29.67R WCI  19
BELLAIRE       CLOUDY    33  24  71 W14G22    29.73R WCI  23
CADILLAC       CLOUDY    29  20  69 W14G29    29.73R WCI  19
CHARLEVOIX     CLOUDY    33  24  69 SW18G30   29.72R WCI  22
GAYLORD        CLOUDY    33  24  69 W23G31    29.66R WCI  21
HOUGHTON LAKE  CLOUDY    33  22  63 W20G26    29.72R WCI  21
MANISTEE       CLOUDY    29  21  72 W17G26    29.80R WCI  17
OSCODA         CLEAR     35  31  87 MISG      29.70S
PELLSTON       CLOUDY    36  24  62 SW18G32   29.66R WCI  26
TRAVERSE CITY  CLOUDY    31  21  66 W18G31    29.75R WCI  19
LUDINGTON      CLOUDY    29  22  74 W13G23    29.83R WCI  19
$$
MIZ007>008-015-070600-
EASTERN UPPER MICHIGAN

CITY           SKY/WX    TMP DP  RH WIND       PRES   REMARKS
KINROSS        CLOUDY    34  32  93 SW5       29.61R WCI  30
MACKINAC ISLAN CLOUDY    35  28  73 SW20G35   29.63R WCI  25
NEWBERRY       PTCLDY    30  26  84 SW20G26   29.60R WCI  17
S. S. MARIE    CLOUDY    35  32  88 SW6       29.59R WCI  30
$$
MIZ004>006-011>014-085-070600-
CENTRAL UPPER MICHIGAN

CITY           SKY/WX    TMP DP  RH WIND       PRES   REMARKS
MANISTIQUE     CLOUDY    28  18  65 W9G20     29.66R WCI  19
ESCANABA       FLURRIES  26  16  65 SW22G29   29.70R WCI  12
MENOMINEE      FLURRIES  27  17  66 W12G17    29.75R WCI  17
SAWYER-GWINN   CLOUDY    24  15  70 W13       29.62S WCI  12
$$
MIZ001>003-009>011-084-070600-
WESTERN UPPER MICHIGAN

CITY           SKY/WX    TMP DP  RH WIND       PRES   REMARKS
IRON MOUNTAIN  CLOUDY    24  14  65 W14G25    29.64S WCI  12
HOUGHTON       CLOUDY    24  15  68 SW15      29.56S WCI  11
COPPER HARBOR    N/A     27  17  66 W7        29.57R WCI  19
IRONWOOD       FLURRIES  21  15  78 SW20G26   29.59R WCI   6
$$

ABBREVIATIONS USED IN REMARKS
   TC - TEMPERATURE IN CELSIUS
  WCI - WIND CHILL INDEX
   HX - HEAT INDEX
  VSB - VISIBILITY





USA.gov is the U.S. government's official web portal to all federal, state and local government web resources and services.